Carbondale, IL

9:45 AM CST on November 21, 2019 (GMT -0600)
Southern Illinois

Weather History for KMDH - August, 2019

Change the Weather History Date:

Saturday, August 17, 2019

  Actual Average Record
Temperature  
Mean Temperature 80 °F -  
Max Temperature 91 °F 87 °F 109 °F (1936)
Min Temperature 69 °F 65 °F 52 °F (1992)
Cooling Degree Days 15    
Growing Degree Days 30 (Base 50)    
Moisture  
Dew Point 71 °F    
Average Humidity 77    
Maximum Humidity 96    
Minimum Humidity 53    
Precipitation  
Precipitation 0.00 in - - ()
Sea Level Pressure  
Sea Level Pressure 29.92 in    
Wind  
Wind Speed 4 mph (South)    
Max Wind Speed 14 mph    
Max Gust Speed -    
Visibility 10 miles    
Events      
Averages and records for this station are not official NWS values.
T = Trace of Precipitation, MM = Missing Value Source: NWS Daily Summary

Daily Weather History Graph

Daily Weather History Graph

Search for Another Location

Airport or City:

Astronomy

Aug. 17, 2019 Rise Set
Actual Time 6:14 AM CDT 7:47 PM CDT
Civil Twilight 5:46 AM CDT 8:15 PM CDT
Nautical Twilight 5:12 AM CDT 8:48 PM CDT
Astronomical Twilight 4:37 AM CDT 9:23 PM CDT
Moon 9:17 PM CDT (8/17) 8:01 AM CDT (8/17)
Length of Visible Light 14h 29m
Length of Day
13h 33m
Waning Gibbous, 96% of the Moon is Illuminated
Aug 17
Waning Gibbous
Aug 23
Last Quarter
Aug 30
New
Sep 5
First Quarter
Sep 13
Full

Hourly Weather History & Observations

Time (CDT) Temp. Heat Index Dew Point Humidity Pressure Visibility Wind Dir Wind Speed Gust Speed Precip Events Conditions
12:52 AM 71.1 °F - 69.1 °F 93% 29.95 in 10.0 mi Calm Calm - N/A   Clear
1:52 AM 70.0 °F - 68.0 °F 93% 29.92 in 8.0 mi ESE 3.5 mph - N/A   Clear
2:52 AM 70.0 °F - 68.0 °F 93% 29.90 in 10.0 mi Calm Calm - N/A   Clear
3:52 AM 70.0 °F - 68.0 °F 93% 29.91 in 10.0 mi Calm Calm - N/A   Clear
4:52 AM 69.1 °F - 68.0 °F 96% 29.92 in 10.0 mi Calm Calm - N/A   Clear
5:52 AM 70.0 °F - 68.0 °F 93% 29.93 in 9.0 mi Calm Calm - N/A   Clear
6:52 AM 72.0 °F - 70.0 °F 93% 29.94 in 7.0 mi South 3.5 mph - N/A   Clear
7:52 AM 75.9 °F - 73.0 °F 91% 29.95 in 10.0 mi SSW 6.9 mph - N/A   Clear
8:52 AM 79.0 °F - 73.0 °F 82% 29.96 in 10.0 mi SW 6.9 mph - N/A   Clear
9:52 AM 82.9 °F 88.0 °F 72.0 °F 69% 29.94 in 10.0 mi WSW 10.4 mph - N/A   Clear
10:52 AM 84.0 °F 89.0 °F 71.1 °F 65% 29.98 in 10.0 mi North 9.2 mph - N/A   Scattered Clouds
11:52 AM 86.0 °F 91.5 °F 71.1 °F 61% 29.97 in 10.0 mi Calm Calm - N/A   Clear
12:52 PM 87.1 °F 92.8 °F 71.1 °F 59% 29.94 in 10.0 mi South 5.8 mph - N/A   Clear
1:52 PM 90.0 °F 99.0 °F 73.9 °F 59% 29.91 in 10.0 mi South 9.2 mph - N/A   Clear
2:52 PM 91.0 °F 99.3 °F 73.0 °F 55% 29.89 in 10.0 mi South 10.4 mph - N/A   Partly Cloudy
3:52 PM 91.0 °F 98.2 °F 72.0 °F 53% 29.88 in 10.0 mi South 8.1 mph - N/A   Scattered Clouds
4:52 PM 89.1 °F 97.0 °F 73.0 °F 59% 29.88 in 10.0 mi South 10.4 mph - N/A   Partly Cloudy
5:52 PM 89.1 °F 97.0 °F 73.0 °F 59% 29.86 in 10.0 mi South 13.8 mph - N/A   Clear
6:52 PM 84.9 °F 90.7 °F 72.0 °F 65% 29.86 in 10.0 mi South 12.7 mph - N/A   Clear
7:52 PM 81.0 °F 85.2 °F 72.0 °F 74% 29.87 in 10.0 mi South 8.1 mph - N/A   Clear
8:52 PM 80.1 °F 83.8 °F 72.0 °F 76% 29.89 in 10.0 mi South 6.9 mph - N/A   Clear
9:52 PM 78.1 °F - 72.0 °F 81% 29.91 in 10.0 mi South 3.5 mph - N/A   Clear
10:52 PM 77.0 °F - 73.0 °F 88% 29.91 in 10.0 mi SSE 3.5 mph - N/A   Clear
11:52 PM 75.9 °F - 73.0 °F 91% 29.92 in 10.0 mi SSE 3.5 mph - N/A   Clear